BREEZE-KM R/B, 40556

Orbit data source: Space-Track

BREEZE-KM R/B, 40556 is space debris in LEO originally from a launch on Tue, 31 Mar 2015 UTC launched from the Plesetsk Missile And Space Complex (PKMTR). Debris objects in space refer to the collection of defunct objects orbiting the Earth. Examples of debris include non-operational satellites, rocket bodies, and fragments generated from explosions, collisions, or faulty payload assembly.

Loading next visibility...
Identifier
40556, 2015-020E
Orbit
LEO
Country
Flag of CISCIS
Related business
Manufacturer
Khrunichev
Mission
Spacecraft
Bus & Motor
BRIZ, S5.92
Mass
2,370 kg wet, 2,370 kg dry
Launch date (UTC)
2015-03-31 (11 years ago)
Launch vehicle
Unknown
Launch site
Plesetsk Missile And Space Complex (PKMTR)
Object type
Payload
Rocket body
Debris
Shape & HBR
Hex Cyl + 1 Rod, 2.0 m
Radar Cross Section
10.190 m², Large (>1 m²)

Expand to show TLE details & history
Last TLE update: 9 hours ago

TLE from 9 hours ago
0 BREEZE-KM R/B
1 40556U 15020E   25300.20958849  .00000017  00000-0  28236-4 0  9996
2 40556  82.4934   1.8295 0214102 233.2387 124.8892 12.80556486494337
Epoch: 2025-10-27T05:01Z
TLE epoch observation values (Epoch: 2025-10-27T05:01:48.445Z)
Latitude
-0.00002°
Longitude
-109.43707°
Altitude
1,438.851 km
Speed
7.097 km/s
True Right ascension
00h 07m 19s
True Declination
0° 00' 00"
Sunlit
Object was in full shadow at epoch
Visualization orbit readout
Latitude
Unknown
Longitude
Unknown
Altitude
Unknown
Speed
Unknown
Apparent Right ascension
Unknown
Apparent Declination
Unknown
Sunlit
N/A
Visualization observer readout
Local Sidereal Time
09:11:30
Azimuth
Unknown
Elevation
Unknown
Doppler factor
Unknown
Orbital elements
Apogee altitude
1,501.702 km
Perigee altitude
1,171.357 km
Semi-major axis
7,714.667 km
Eccentricity
0.02141
Inclination
82.4934°
RAAN
1.8295°
Arg. of periapsis
233.2387°
True anomaly
126.87089°
Mean anomaly
124.8892°
Eccentric anomaly
125.8831°
Mean motion
3.20308 °/min
Orbital period
112.39 mins
BSTAR
0.000028236
Loading maneuver chart data...
Computing Atmospheric mass density...
Loading historical data...
Loading historical data...
Loading historical data...
Loading historical data...
Loading historical data...
Loading historical data...
Loading historical data...

Documentation

Showing up to 5 results
|